カタログに戻る

INSAT 1B

運用中通信GEO
NORAD 14318·PAYLOAD·🇮🇳 India

打ち上げ Aug 30, 1983 から Cape Canaveral Space Force Station

Loading…

TLE

最新Source: Space-Track

元期: Sep 13, 2026, 20:51 UTC

1 14318U 83089B   26256.86902250  .00000124  00000-0  00000+0 0  9994
2 14318  11.0503 326.4582 0012960 242.4604 130.5685  1.00204125126102

AllMySatでINSAT 1Bをリアルタイム追跡

Download on the App Store